Location: Fuglau
(48.6333°N, 15.5500°E)
Time: 23:22:49
(UTC+00:00)

STARLINK-1038 - Pass Details

Date: 27 February 2020
Orbit: 549 x 550 km, 53.0° (Epoch: 05 April)

Event Time Altitude Azimuth Distance (km) Brightness Sun altitude
Rises 18:11:23 0° 239° (WSW) 2,710 8.0 -16.3°
Reaches altitude 10° 18:13:37 10° 238° (WSW) 1,820 7.0 -16.6°
Maximum altitude 18:17:45 80° 153° (SSE) 563 3.5 -17.3°
Enters shadow 18:19:23 36° 70° (ENE) 886 4.2 -17.6°
